Year,Month,Day,Hour,Minute,Value (Times are PST for temperature in C)
2008,07,25,00,00,15.40
2008,07,25,00,01,15.40
2008,07,25,00,02,15.40
2008,07,25,00,03,15.40
2008,07,25,00,04,15.40
2008,07,25,00,05,15.50
2008,07,25,00,06,15.50
2008,07,25,00,07,15.50
2008,07,25,00,08,15.60
2008,07,25,00,09,15.60
2008,07,25,00,10,15.60
2008,07,25,00,11,15.60
2008,07,25,00,12,15.60
2008,07,25,00,13,15.60
2008,07,25,00,14,15.60
2008,07,25,00,15,15.60
2008,07,25,00,16,15.60
2008,07,25,00,17,15.60
2008,07,25,00,18,15.60
2008,07,25,00,19,15.60
2008,07,25,00,20,15.60
2008,07,25,00,21,15.60
2008,07,25,00,22,15.60
2008,07,25,00,23,15.60
2008,07,25,00,24,15.60
2008,07,25,00,25,15.50
2008,07,25,00,26,15.50
2008,07,25,00,27,15.50
2008,07,25,00,28,15.50
2008,07,25,00,29,15.50
2008,07,25,00,30,15.40
2008,07,25,00,31,15.40
2008,07,25,00,32,15.30
2008,07,25,00,33,15.30
2008,07,25,00,34,15.30
2008,07,25,00,35,15.30
2008,07,25,00,36,15.20
2008,07,25,00,37,15.20
2008,07,25,00,38,15.10
2008,07,25,00,39,15.10
2008,07,25,00,40,15.10
2008,07,25,00,41,15.10
2008,07,25,00,42,15.00
2008,07,25,00,43,15.00
2008,07,25,00,44,15.00
2008,07,25,00,45,15.00
2008,07,25,00,46,15.00
2008,07,25,00,47,15.10
2008,07,25,00,48,15.10
2008,07,25,00,49,15.10
2008,07,25,00,50,15.10
2008,07,25,00,51,15.10
2008,07,25,00,52,15.00
2008,07,25,00,53,15.00
2008,07,25,00,54,14.90
2008,07,25,00,55,14.90
2008,07,25,00,56,14.90
2008,07,25,00,57,14.80
2008,07,25,00,58,14.80
2008,07,25,00,59,14.80
2008,07,25,01,00,14.80
2008,07,25,01,01,14.80
2008,07,25,01,02,14.80
2008,07,25,01,03,14.80
2008,07,25,01,04,14.80
2008,07,25,01,05,14.80
2008,07,25,01,06,14.70
2008,07,25,01,07,14.70
2008,07,25,01,08,14.70
2008,07,25,01,09,14.70
2008,07,25,01,10,14.70
2008,07,25,01,11,14.70
2008,07,25,01,12,14.70
2008,07,25,01,13,14.70
2008,07,25,01,14,14.60
2008,07,25,01,15,14.60
2008,07,25,01,16,14.60
2008,07,25,01,17,14.60
2008,07,25,01,18,14.60
2008,07,25,01,19,14.50
2008,07,25,01,20,14.50
2008,07,25,01,21,14.50
2008,07,25,01,22,14.40
2008,07,25,01,23,14.40
2008,07,25,01,24,14.40
2008,07,25,01,25,14.30
2008,07,25,01,26,14.30
2008,07,25,01,27,14.30
2008,07,25,01,28,14.20
2008,07,25,01,29,14.20
2008,07,25,01,30,14.20
2008,07,25,01,31,14.10
2008,07,25,01,32,14.10
2008,07,25,01,33,14.00
2008,07,25,01,34,14.00
2008,07,25,01,35,14.00
2008,07,25,01,36,14.00
2008,07,25,01,37,13.90
2008,07,25,01,38,13.90
2008,07,25,01,39,13.90
2008,07,25,01,40,13.90
2008,07,25,01,41,13.90
2008,07,25,01,42,13.90
2008,07,25,01,43,13.90
2008,07,25,01,44,13.80
2008,07,25,01,45,13.80
2008,07,25,01,46,13.80
2008,07,25,01,47,13.80
2008,07,25,01,48,13.70
2008,07,25,01,49,13.70
2008,07,25,01,50,13.70
2008,07,25,01,51,13.70
2008,07,25,01,52,13.70
2008,07,25,01,53,13.70
2008,07,25,01,54,13.70
2008,07,25,01,55,13.70
2008,07,25,01,56,13.70
2008,07,25,01,57,13.70
2008,07,25,01,58,13.70
2008,07,25,01,59,13.80
2008,07,25,02,00,13.80
2008,07,25,02,01,13.90
2008,07,25,02,02,13.90
2008,07,25,02,03,13.90
2008,07,25,02,04,13.90
2008,07,25,02,05,13.90
2008,07,25,02,06,13.90
2008,07,25,02,07,13.90
2008,07,25,02,08,13.90
2008,07,25,02,09,13.90
2008,07,25,02,10,13.90
2008,07,25,02,11,13.90
2008,07,25,02,12,13.90
2008,07,25,02,13,13.90
2008,07,25,02,14,13.80
2008,07,25,02,15,13.80
2008,07,25,02,16,13.80
2008,07,25,02,17,13.80
2008,07,25,02,18,13.80
2008,07,25,02,19,13.80
2008,07,25,02,20,13.70
2008,07,25,02,21,13.70
2008,07,25,02,22,13.70
2008,07,25,02,23,13.70
2008,07,25,02,24,13.70
2008,07,25,02,25,13.70
2008,07,25,02,26,13.60
2008,07,25,02,27,13.60
2008,07,25,02,28,13.50
2008,07,25,02,29,13.50
2008,07,25,02,30,13.50
2008,07,25,02,31,13.40
2008,07,25,02,32,13.30
2008,07,25,02,33,13.30
2008,07,25,02,34,13.30
2008,07,25,02,35,13.30
2008,07,25,02,36,13.30
2008,07,25,02,37,13.30
2008,07,25,02,38,13.20
2008,07,25,02,39,13.20
2008,07,25,02,40,13.10
2008,07,25,02,41,13.10
2008,07,25,02,42,13.10
2008,07,25,02,43,13.00
2008,07,25,02,44,13.00
2008,07,25,02,45,13.00
2008,07,25,02,46,13.00
2008,07,25,02,47,12.90
2008,07,25,02,48,12.90
2008,07,25,02,49,12.90
2008,07,25,02,50,12.90
2008,07,25,02,51,12.90
2008,07,25,02,52,12.90
2008,07,25,02,53,12.80
2008,07,25,02,54,12.80
2008,07,25,02,55,12.80
2008,07,25,02,56,12.80
2008,07,25,02,57,12.80
2008,07,25,02,58,12.80
2008,07,25,02,59,12.80
2008,07,25,03,00,12.80
2008,07,25,03,01,12.80
2008,07,25,03,02,12.80
2008,07,25,03,03,12.70
2008,07,25,03,04,12.70
2008,07,25,03,05,12.60
2008,07,25,03,06,12.60
2008,07,25,03,07,12.60
2008,07,25,03,08,12.50
2008,07,25,03,09,12.50
2008,07,25,03,10,12.40
2008,07,25,03,11,12.40
2008,07,25,03,12,12.40
2008,07,25,03,13,12.40
2008,07,25,03,14,12.30
2008,07,25,03,15,12.30
2008,07,25,03,16,12.30
2008,07,25,03,17,12.30
2008,07,25,03,18,12.30
2008,07,25,03,19,12.30
2008,07,25,03,20,12.30
2008,07,25,03,21,12.30
2008,07,25,03,22,12.20
2008,07,25,03,23,12.20
2008,07,25,03,24,12.20
2008,07,25,03,25,12.20
2008,07,25,03,26,12.20
2008,07,25,03,27,12.20
2008,07,25,03,28,12.20
2008,07,25,03,29,12.20
2008,07,25,03,30,12.20
2008,07,25,03,31,12.20
2008,07,25,03,32,12.20
2008,07,25,03,33,12.20
2008,07,25,03,34,12.20
2008,07,25,03,35,12.10
2008,07,25,03,36,12.10
2008,07,25,03,37,12.00
2008,07,25,03,38,12.00
2008,07,25,03,39,12.00
2008,07,25,03,40,11.90
2008,07,25,03,41,11.90
2008,07,25,03,42,11.80
2008,07,25,03,43,11.80
2008,07,25,03,44,11.80
2008,07,25,03,45,11.80
2008,07,25,03,46,11.80
2008,07,25,03,47,11.70
2008,07,25,03,48,11.70
2008,07,25,03,49,11.70
2008,07,25,03,50,11.60
2008,07,25,03,51,11.60
2008,07,25,03,52,11.60
2008,07,25,03,53,11.60
2008,07,25,03,54,11.60
2008,07,25,03,55,11.60
2008,07,25,03,56,11.60
2008,07,25,03,57,11.60
2008,07,25,03,58,11.60
2008,07,25,03,59,11.40
2008,07,25,04,00,11.40
2008,07,25,04,01,11.40
2008,07,25,04,02,11.40
2008,07,25,04,03,11.40
2008,07,25,04,04,11.40
2008,07,25,04,05,11.40
2008,07,25,04,06,11.40
2008,07,25,04,07,11.40
2008,07,25,04,08,11.40
2008,07,25,04,09,11.40
2008,07,25,04,10,11.30
2008,07,25,04,11,11.30
2008,07,25,04,12,11.30
2008,07,25,04,13,11.30
2008,07,25,04,14,11.30
2008,07,25,04,15,11.30
2008,07,25,04,16,11.30
2008,07,25,04,17,11.30
2008,07,25,04,18,11.30
2008,07,25,04,19,11.30
2008,07,25,04,20,11.30
2008,07,25,04,21,11.30
2008,07,25,04,22,11.30
2008,07,25,04,23,11.30
2008,07,25,04,24,11.30
2008,07,25,04,25,11.20
2008,07,25,04,26,11.20
2008,07,25,04,27,11.20
2008,07,25,04,28,11.20
2008,07,25,04,29,11.20
2008,07,25,04,30,11.20
2008,07,25,04,31,11.20
2008,07,25,04,32,11.20
2008,07,25,04,33,11.20
2008,07,25,04,34,11.20
2008,07,25,04,35,11.10
2008,07,25,04,36,11.10
2008,07,25,04,37,11.10
2008,07,25,04,38,11.10
2008,07,25,04,39,11.10
2008,07,25,04,40,11.10
2008,07,25,04,41,10.90
2008,07,25,04,42,10.90
2008,07,25,04,43,10.90
2008,07,25,04,44,10.90
2008,07,25,04,45,10.90
2008,07,25,04,46,10.90
2008,07,25,04,47,10.90
2008,07,25,04,48,10.90
2008,07,25,04,49,10.90
2008,07,25,04,50,10.90
2008,07,25,04,51,10.90
2008,07,25,04,52,10.90
2008,07,25,04,53,10.90
2008,07,25,04,54,10.90
2008,07,25,04,55,10.90
2008,07,25,04,56,10.80
2008,07,25,04,57,10.80
2008,07,25,04,58,10.80
2008,07,25,04,59,10.80
2008,07,25,05,00,10.80
2008,07,25,05,01,10.80
2008,07,25,05,02,10.70
2008,07,25,05,03,10.70
2008,07,25,05,04,10.70
2008,07,25,05,05,10.70
2008,07,25,05,06,10.70
2008,07,25,05,07,10.70
2008,07,25,05,08,10.70
2008,07,25,05,09,10.70
2008,07,25,05,10,10.60
2008,07,25,05,11,10.60
2008,07,25,05,12,10.60
2008,07,25,05,13,10.60
2008,07,25,05,14,10.60
2008,07,25,05,15,10.60
2008,07,25,05,16,10.60
2008,07,25,05,17,10.60
2008,07,25,05,18,10.60
2008,07,25,05,19,10.60
2008,07,25,05,20,10.60
2008,07,25,05,21,10.60
2008,07,25,05,22,10.60
2008,07,25,05,23,10.60
2008,07,25,05,24,10.60
2008,07,25,05,25,10.60
2008,07,25,05,26,10.60
2008,07,25,05,27,10.60
2008,07,25,05,28,10.60
2008,07,25,05,29,10.60
2008,07,25,05,30,10.60
2008,07,25,05,31,10.60
2008,07,25,05,32,10.60
2008,07,25,05,33,10.60
2008,07,25,05,34,10.40
2008,07,25,05,35,10.40
2008,07,25,05,36,10.40
2008,07,25,05,37,10.40
2008,07,25,05,38,10.40
2008,07,25,05,39,10.40
2008,07,25,05,40,10.40
2008,07,25,05,41,10.40
2008,07,25,05,42,10.40
2008,07,25,05,43,10.40
2008,07,25,05,44,10.40
2008,07,25,05,45,10.40
2008,07,25,05,46,10.40
2008,07,25,05,47,10.40
2008,07,25,05,48,10.40
2008,07,25,05,49,10.40
2008,07,25,05,50,10.30
2008,07,25,05,51,10.30
2008,07,25,05,52,10.30
2008,07,25,05,53,10.30
2008,07,25,05,54,10.30
2008,07,25,05,55,10.20
2008,07,25,05,56,10.20
2008,07,25,05,57,10.20
2008,07,25,05,58,10.20
2008,07,25,05,59,10.20
2008,07,25,06,00,10.20
2008,07,25,06,01,10.20
2008,07,25,06,02,10.20
2008,07,25,06,03,10.20
2008,07,25,06,04,10.20
2008,07,25,06,05,10.20
2008,07,25,06,06,10.20
2008,07,25,06,07,10.20
2008,07,25,06,08,10.20
2008,07,25,06,09,10.20
2008,07,25,06,10,10.20
2008,07,25,06,11,10.20
2008,07,25,06,12,10.30
2008,07,25,06,13,10.20
2008,07,25,06,14,10.20
2008,07,25,06,15,10.20
2008,07,25,06,16,10.20
2008,07,25,06,17,10.20
2008,07,25,06,18,10.20
2008,07,25,06,19,10.20
2008,07,25,06,20,10.20
2008,07,25,06,21,10.20
2008,07,25,06,22,10.30
2008,07,25,06,23,10.30
2008,07,25,06,24,10.30
2008,07,25,06,25,10.30
2008,07,25,06,26,10.30
2008,07,25,06,27,10.40
2008,07,25,06,28,10.40
2008,07,25,06,29,10.40
2008,07,25,06,30,10.40
2008,07,25,06,31,10.40
2008,07,25,06,32,10.40
2008,07,25,06,33,10.50
2008,07,25,06,34,10.40
2008,07,25,06,35,10.50
2008,07,25,06,36,10.60
2008,07,25,06,37,10.60
2008,07,25,06,38,10.60
2008,07,25,06,39,10.60
2008,07,25,06,40,10.60
2008,07,25,06,41,10.60
2008,07,25,06,42,10.60
2008,07,25,06,43,10.60
2008,07,25,06,44,10.60
2008,07,25,06,45,10.60
2008,07,25,06,46,10.70
2008,07,25,06,47,10.70
2008,07,25,06,48,10.70
2008,07,25,06,49,10.70
2008,07,25,06,50,10.80
2008,07,25,06,51,10.80
2008,07,25,06,52,10.80
2008,07,25,06,53,10.90
2008,07,25,06,54,10.90
2008,07,25,06,55,10.90
2008,07,25,06,56,10.90
2008,07,25,06,57,11.00
2008,07,25,06,58,11.10
2008,07,25,06,59,11.10
2008,07,25,07,00,11.20
2008,07,25,07,01,11.30
2008,07,25,07,02,11.30
2008,07,25,07,03,11.40
2008,07,25,07,04,11.40
2008,07,25,07,05,11.40
2008,07,25,07,06,11.50
2008,07,25,07,07,11.60
2008,07,25,07,08,11.60
2008,07,25,07,09,11.60
2008,07,25,07,10,11.70
2008,07,25,07,11,11.70
2008,07,25,07,12,11.70
2008,07,25,07,13,11.70
2008,07,25,07,14,11.80
2008,07,25,07,15,11.70
2008,07,25,07,16,11.70
2008,07,25,07,17,11.70
2008,07,25,07,18,11.80
2008,07,25,07,19,11.80
2008,07,25,07,20,11.80
2008,07,25,07,21,11.80
2008,07,25,07,22,11.80
2008,07,25,07,23,11.80
2008,07,25,07,24,11.80
2008,07,25,07,25,11.80
2008,07,25,07,26,11.80
2008,07,25,07,27,11.80
2008,07,25,07,28,11.80
2008,07,25,07,29,11.80
2008,07,25,07,30,11.80
2008,07,25,07,31,11.80
2008,07,25,07,32,11.80
2008,07,25,07,33,11.90
2008,07,25,07,34,11.90
2008,07,25,07,35,11.90
2008,07,25,07,36,12.00
2008,07,25,07,37,12.10
2008,07,25,07,38,12.20
2008,07,25,07,39,12.30
2008,07,25,07,40,12.40
2008,07,25,07,41,12.50
2008,07,25,07,42,12.60
2008,07,25,07,43,12.70
2008,07,25,07,44,12.80
2008,07,25,07,45,12.90
2008,07,25,07,46,13.00
2008,07,25,07,47,13.10
2008,07,25,07,48,13.30
2008,07,25,07,49,13.40
2008,07,25,07,50,13.50
2008,07,25,07,51,13.60
2008,07,25,07,52,13.70
2008,07,25,07,53,13.70
2008,07,25,07,54,13.80
2008,07,25,07,55,13.90
2008,07,25,07,56,13.90
2008,07,25,07,57,14.00
2008,07,25,07,58,14.10
2008,07,25,07,59,14.20
2008,07,25,08,00,14.40
2008,07,25,08,01,14.50
2008,07,25,08,02,14.60
2008,07,25,08,03,14.70
2008,07,25,08,04,14.80
2008,07,25,08,05,14.80
2008,07,25,08,06,14.80
2008,07,25,08,07,14.80
2008,07,25,08,08,14.90
2008,07,25,08,09,15.00
2008,07,25,08,10,15.10
2008,07,25,08,11,15.20
2008,07,25,08,12,15.30
2008,07,25,08,13,15.40
2008,07,25,08,14,15.50
2008,07,25,08,15,15.60
2008,07,25,08,16,15.60
2008,07,25,08,17,15.70
2008,07,25,08,18,15.70
2008,07,25,08,19,15.70
2008,07,25,08,20,15.70
2008,07,25,08,21,15.60
2008,07,25,08,22,15.60
2008,07,25,08,23,15.50
2008,07,25,08,24,15.40
2008,07,25,08,25,15.30
2008,07,25,08,26,15.20
2008,07,25,08,27,15.20
2008,07,25,08,28,15.10
2008,07,25,08,29,15.10
2008,07,25,08,30,15.00
2008,07,25,08,31,15.00
2008,07,25,08,32,15.00
2008,07,25,08,33,15.00
2008,07,25,08,34,15.00
2008,07,25,08,35,15.00
2008,07,25,08,36,15.00
2008,07,25,08,37,15.00
2008,07,25,08,38,15.10
2008,07,25,08,39,15.10
2008,07,25,08,40,15.20
2008,07,25,08,41,15.20
2008,07,25,08,42,15.30
2008,07,25,08,43,15.30
2008,07,25,08,44,15.30
2008,07,25,08,45,15.30
2008,07,25,08,46,15.30
2008,07,25,08,47,15.30
2008,07,25,08,48,15.30
2008,07,25,08,49,15.40
2008,07,25,08,50,15.40
2008,07,25,08,51,15.50
2008,07,25,08,52,15.60
2008,07,25,08,53,15.70
2008,07,25,08,54,15.70
2008,07,25,08,55,15.80
2008,07,25,08,56,15.80
2008,07,25,08,57,15.90
2008,07,25,08,58,16.10
2008,07,25,08,59,16.10
2008,07,25,09,00,16.20
2008,07,25,09,01,16.40
2008,07,25,09,02,16.50
2008,07,25,09,03,16.60
2008,07,25,09,04,16.70
2008,07,25,09,05,16.80
2008,07,25,09,06,16.90
2008,07,25,09,07,17.00
2008,07,25,09,08,17.20
2008,07,25,09,09,17.30
2008,07,25,09,10,17.40
2008,07,25,09,11,17.50
2008,07,25,09,12,17.70
2008,07,25,09,13,17.70
2008,07,25,09,14,17.80
2008,07,25,09,15,17.90
2008,07,25,09,16,17.90
2008,07,25,09,17,18.00
2008,07,25,09,18,18.10
2008,07,25,09,19,18.20
2008,07,25,09,20,18.20
2008,07,25,09,21,18.20
2008,07,25,09,22,18.30
2008,07,25,09,23,18.30
2008,07,25,09,24,18.40
2008,07,25,09,25,18.40
2008,07,25,09,26,18.50
2008,07,25,09,27,18.50
2008,07,25,09,28,18.50
2008,07,25,09,29,18.60
2008,07,25,09,30,18.60
2008,07,25,09,31,18.60
2008,07,25,09,32,18.70
2008,07,25,09,33,18.70
2008,07,25,09,34,18.70
2008,07,25,09,35,18.60
2008,07,25,09,36,18.50
2008,07,25,09,37,18.50
2008,07,25,09,38,18.40
2008,07,25,09,39,18.40
2008,07,25,09,40,18.40
2008,07,25,09,41,18.40
2008,07,25,09,42,18.20
2008,07,25,09,43,18.20
2008,07,25,09,44,18.20
2008,07,25,09,45,18.20
2008,07,25,09,46,18.10
2008,07,25,09,47,17.90
2008,07,25,09,48,17.90
2008,07,25,09,49,17.90
2008,07,25,09,50,18.00
2008,07,25,09,51,18.20
2008,07,25,09,52,18.20
2008,07,25,09,53,18.30
2008,07,25,09,54,18.40
2008,07,25,09,55,18.50
2008,07,25,09,56,18.50
2008,07,25,09,57,18.60
2008,07,25,09,58,18.50
2008,07,25,09,59,18.50
2008,07,25,10,00,18.50
2008,07,25,10,01,18.50
2008,07,25,10,02,18.40
2008,07,25,10,03,18.40
2008,07,25,10,04,18.50
2008,07,25,10,05,18.60
2008,07,25,10,06,18.60
2008,07,25,10,07,18.70
2008,07,25,10,08,18.80
2008,07,25,10,09,18.90
2008,07,25,10,10,19.00
2008,07,25,10,11,19.10
2008,07,25,10,12,19.30
2008,07,25,10,13,19.30
2008,07,25,10,14,19.40
2008,07,25,10,15,19.40
2008,07,25,10,16,19.40
2008,07,25,10,17,19.40
2008,07,25,10,18,19.40
2008,07,25,10,19,19.50
2008,07,25,10,20,19.60
2008,07,25,10,21,19.70
2008,07,25,10,22,19.80
2008,07,25,10,23,19.90
2008,07,25,10,24,20.00
2008,07,25,10,25,20.10
2008,07,25,10,26,20.20
2008,07,25,10,27,20.30
2008,07,25,10,28,20.40
2008,07,25,10,29,20.50
2008,07,25,10,30,20.70
2008,07,25,10,31,20.80
2008,07,25,10,32,20.70
2008,07,25,10,33,20.60
2008,07,25,10,34,20.40
2008,07,25,10,35,20.20
2008,07,25,10,36,20.10
2008,07,25,10,37,20.10
2008,07,25,10,38,19.90
2008,07,25,10,39,19.90
2008,07,25,10,40,19.90
2008,07,25,10,41,19.70
2008,07,25,10,42,19.60
2008,07,25,10,43,19.60
2008,07,25,10,44,19.60
2008,07,25,10,45,19.70
2008,07,25,10,46,19.70
2008,07,25,10,47,19.70
2008,07,25,10,48,19.70
2008,07,25,10,49,19.70
2008,07,25,10,50,19.70
2008,07,25,10,51,19.60
2008,07,25,10,52,19.60
2008,07,25,10,53,19.70
2008,07,25,10,54,19.70
2008,07,25,10,55,19.70
2008,07,25,10,56,19.70
2008,07,25,10,57,19.60
2008,07,25,10,58,19.50
2008,07,25,10,59,19.50
2008,07,25,11,00,19.60
2008,07,25,11,01,19.50
2008,07,25,11,02,19.60
2008,07,25,11,03,19.70
2008,07,25,11,04,19.80
2008,07,25,11,05,19.80
2008,07,25,11,06,19.80
2008,07,25,11,07,19.80
2008,07,25,11,08,19.90
2008,07,25,11,09,19.90
2008,07,25,11,10,20.00
2008,07,25,11,11,20.10
2008,07,25,11,12,20.20
2008,07,25,11,13,20.20
2008,07,25,11,14,20.20
2008,07,25,11,15,20.30
2008,07,25,11,16,20.30
2008,07,25,11,17,20.20
2008,07,25,11,18,20.20
2008,07,25,11,19,20.20
2008,07,25,11,20,20.20
2008,07,25,11,21,20.20
2008,07,25,11,22,20.20
2008,07,25,11,23,20.20
2008,07,25,11,24,20.20
2008,07,25,11,25,20.20
2008,07,25,11,26,20.20
2008,07,25,11,27,20.10
2008,07,25,11,28,20.10
2008,07,25,11,29,20.10
2008,07,25,11,30,20.10
2008,07,25,11,31,20.00
2008,07,25,11,32,19.90
2008,07,25,11,33,19.90
2008,07,25,11,34,19.90
2008,07,25,11,35,19.90
2008,07,25,11,36,19.80
2008,07,25,11,37,19.80
2008,07,25,11,38,19.70
2008,07,25,11,39,19.70
2008,07,25,11,40,19.70
2008,07,25,11,41,19.60
2008,07,25,11,42,19.60
2008,07,25,11,43,19.50
2008,07,25,11,44,19.40
2008,07,25,11,45,19.40
2008,07,25,11,46,19.30
2008,07,25,11,47,19.30
2008,07,25,11,48,19.30
2008,07,25,11,49,19.40
2008,07,25,11,50,19.40
2008,07,25,11,51,19.50
2008,07,25,11,52,19.60
2008,07,25,11,53,19.60
2008,07,25,11,54,19.60
2008,07,25,11,55,19.60
2008,07,25,11,56,19.60
2008,07,25,11,57,19.60
2008,07,25,11,58,19.70
2008,07,25,11,59,19.70
2008,07,25,12,00,19.70
2008,07,25,12,01,19.70
2008,07,25,12,02,19.80
2008,07,25,12,03,19.80
2008,07,25,12,04,19.90
2008,07,25,12,05,19.90
2008,07,25,12,06,20.00
2008,07,25,12,07,20.10
2008,07,25,12,08,20.20
2008,07,25,12,09,20.30
2008,07,25,12,10,20.50
2008,07,25,12,11,20.60
2008,07,25,12,12,20.80
2008,07,25,12,13,21.00
2008,07,25,12,14,21.00
2008,07,25,12,15,21.10
2008,07,25,12,16,21.20
2008,07,25,12,17,21.20
2008,07,25,12,18,21.20
2008,07,25,12,19,21.20
2008,07,25,12,20,21.20
2008,07,25,12,21,21.20
2008,07,25,12,22,21.10
2008,07,25,12,23,21.00
2008,07,25,12,24,21.00
2008,07,25,12,25,21.10
2008,07,25,12,26,21.10
2008,07,25,12,27,21.10
2008,07,25,12,28,21.10
2008,07,25,12,29,21.20
2008,07,25,12,30,21.20
2008,07,25,12,31,21.30
2008,07,25,12,32,21.30
2008,07,25,12,33,21.30
2008,07,25,12,34,21.30
2008,07,25,12,35,21.40
2008,07,25,12,36,21.40
2008,07,25,12,37,21.50
2008,07,25,12,38,21.60
2008,07,25,12,39,21.70
2008,07,25,12,40,21.80
2008,07,25,12,41,21.90
2008,07,25,12,42,21.90
2008,07,25,12,43,22.00
2008,07,25,12,44,22.00
2008,07,25,12,45,22.00
2008,07,25,12,46,22.10
2008,07,25,12,47,22.10
2008,07,25,12,48,22.10
2008,07,25,12,49,22.10
2008,07,25,12,50,22.10
2008,07,25,12,51,22.20
2008,07,25,12,52,22.30
2008,07,25,12,53,22.30
2008,07,25,12,54,22.30
2008,07,25,12,55,22.30
2008,07,25,12,56,22.30
2008,07,25,12,57,22.30
2008,07,25,12,58,22.30
2008,07,25,12,59,22.40
2008,07,25,13,00,22.50
2008,07,25,13,01,22.60
2008,07,25,13,02,22.70
2008,07,25,13,03,22.80
2008,07,25,13,04,23.00
2008,07,25,13,05,23.10
2008,07,25,13,06,23.30
2008,07,25,13,07,23.40
2008,07,25,13,08,23.50
2008,07,25,13,09,23.60
2008,07,25,13,10,23.70
2008,07,25,13,11,23.90
2008,07,25,13,12,24.00
2008,07,25,13,13,24.10
2008,07,25,13,14,24.20
2008,07,25,13,15,24.20
2008,07,25,13,16,24.20
2008,07,25,13,17,24.20
2008,07,25,13,18,24.20
2008,07,25,13,19,24.20
2008,07,25,13,20,24.10
2008,07,25,13,21,24.10
2008,07,25,13,22,24.00
2008,07,25,13,23,23.90
2008,07,25,13,24,23.80
2008,07,25,13,25,23.80
2008,07,25,13,26,23.80
2008,07,25,13,27,23.70
2008,07,25,13,28,23.60
2008,07,25,13,29,23.50
2008,07,25,13,30,23.30
2008,07,25,13,31,23.30
2008,07,25,13,32,23.20
2008,07,25,13,33,23.20
2008,07,25,13,34,23.20
2008,07,25,13,35,23.30
2008,07,25,13,36,23.30
2008,07,25,13,37,23.30
2008,07,25,13,38,23.30
2008,07,25,13,39,23.30
2008,07,25,13,40,23.40
2008,07,25,13,41,23.50
2008,07,25,13,42,23.60
2008,07,25,13,43,23.50
2008,07,25,13,44,23.40
2008,07,25,13,45,23.40
2008,07,25,13,46,23.50
2008,07,25,13,47,23.60
2008,07,25,13,48,23.60
2008,07,25,13,49,23.70
2008,07,25,13,50,23.80
2008,07,25,13,51,24.00
2008,07,25,13,52,24.10
2008,07,25,13,53,24.10
2008,07,25,13,54,24.10
2008,07,25,13,55,24.00
2008,07,25,13,56,23.90
2008,07,25,13,57,23.90
2008,07,25,13,58,24.00
2008,07,25,13,59,24.10
2008,07,25,14,00,24.10
2008,07,25,14,01,24.10
2008,07,25,14,02,24.10
2008,07,25,14,03,24.10
2008,07,25,14,04,24.20
2008,07,25,14,05,24.30
2008,07,25,14,06,24.30
2008,07,25,14,07,24.40
2008,07,25,14,08,24.50
2008,07,25,14,09,24.50
2008,07,25,14,10,24.50
2008,07,25,14,11,24.50
2008,07,25,14,12,24.50
2008,07,25,14,13,24.50
2008,07,25,14,14,24.60
2008,07,25,14,15,24.60
2008,07,25,14,16,24.70
2008,07,25,14,17,24.70
2008,07,25,14,18,24.70
2008,07,25,14,19,24.70
2008,07,25,14,20,24.60
2008,07,25,14,21,24.60
2008,07,25,14,22,24.50
2008,07,25,14,23,24.40
2008,07,25,14,24,24.20
2008,07,25,14,25,24.10
2008,07,25,14,26,24.10
2008,07,25,14,27,24.10
2008,07,25,14,28,24.20
2008,07,25,14,29,24.30
2008,07,25,14,30,24.30
2008,07,25,14,31,24.30
2008,07,25,14,32,24.40
2008,07,25,14,33,24.40
2008,07,25,14,34,24.40
2008,07,25,14,35,24.30
2008,07,25,14,36,24.20
2008,07,25,14,37,24.20
2008,07,25,14,38,24.20
2008,07,25,14,39,24.10
2008,07,25,14,40,24.00
2008,07,25,14,41,23.90
2008,07,25,14,42,24.00
2008,07,25,14,43,24.10
2008,07,25,14,44,24.10
2008,07,25,14,45,24.10
2008,07,25,14,46,24.10
2008,07,25,14,47,24.10
2008,07,25,14,48,24.00
2008,07,25,14,49,23.70
2008,07,25,14,50,23.70
2008,07,25,14,51,23.50
2008,07,25,14,52,23.40
2008,07,25,14,53,23.30
2008,07,25,14,54,23.20
2008,07,25,14,55,23.00
2008,07,25,14,56,22.90
2008,07,25,14,57,22.90
2008,07,25,14,58,22.70
2008,07,25,14,59,22.60
2008,07,25,15,00,22.50
2008,07,25,15,01,22.40
2008,07,25,15,02,22.20
2008,07,25,15,03,22.10
2008,07,25,15,04,22.00
2008,07,25,15,05,21.90
2008,07,25,15,06,21.90
2008,07,25,15,07,21.90
2008,07,25,15,08,21.90
2008,07,25,15,09,21.90
2008,07,25,15,10,21.90
2008,07,25,15,11,21.90
2008,07,25,15,12,21.90
2008,07,25,15,13,21.80
2008,07,25,15,14,21.80
2008,07,25,15,15,21.70
2008,07,25,15,16,21.70
2008,07,25,15,17,21.70
2008,07,25,15,18,21.60
2008,07,25,15,19,21.60
2008,07,25,15,20,21.60
2008,07,25,15,21,21.60
2008,07,25,15,22,21.50
2008,07,25,15,23,21.40
2008,07,25,15,24,21.40
2008,07,25,15,25,21.40
2008,07,25,15,26,21.40
2008,07,25,15,27,21.50
2008,07,25,15,28,21.60
2008,07,25,15,29,21.60
2008,07,25,15,30,21.60
2008,07,25,15,31,21.60
2008,07,25,15,32,21.70
2008,07,25,15,33,21.70
2008,07,25,15,34,21.70
2008,07,25,15,35,21.70
2008,07,25,15,36,21.80
2008,07,25,15,37,21.80
2008,07,25,15,38,21.80
2008,07,25,15,39,21.80
2008,07,25,15,40,21.80
2008,07,25,15,41,21.90
2008,07,25,15,42,21.90
2008,07,25,15,43,22.00
2008,07,25,15,44,22.00
2008,07,25,15,45,22.10
2008,07,25,15,46,22.10
2008,07,25,15,47,22.20
2008,07,25,15,48,22.30
2008,07,25,15,49,22.50
2008,07,25,15,50,22.70
2008,07,25,15,51,22.90
2008,07,25,15,52,22.90
2008,07,25,15,53,23.10
2008,07,25,15,54,23.10
2008,07,25,15,55,23.10
2008,07,25,15,56,23.10
2008,07,25,15,57,22.90
2008,07,25,15,58,22.90
2008,07,25,15,59,22.90
2008,07,25,16,00,22.90
2008,07,25,16,01,22.90
2008,07,25,16,02,22.90
2008,07,25,16,03,22.80
2008,07,25,16,04,22.70
2008,07,25,16,05,22.70
2008,07,25,16,06,22.70
2008,07,25,16,07,22.70
2008,07,25,16,08,22.70
2008,07,25,16,09,22.70
2008,07,25,16,10,22.80
2008,07,25,16,11,22.80
2008,07,25,16,12,22.90
2008,07,25,16,13,22.90
2008,07,25,16,14,22.90
2008,07,25,16,15,22.90
2008,07,25,16,16,22.90
2008,07,25,16,17,23.00
2008,07,25,16,18,23.10
2008,07,25,16,19,23.10
2008,07,25,16,20,23.20
2008,07,25,16,21,23.10
2008,07,25,16,22,23.10
2008,07,25,16,23,23.20
2008,07,25,16,24,23.30
2008,07,25,16,25,23.30
2008,07,25,16,26,23.30
2008,07,25,16,27,23.30
2008,07,25,16,28,23.30
2008,07,25,16,29,23.20
2008,07,25,16,30,23.20
2008,07,25,16,31,23.20
2008,07,25,16,32,23.30
2008,07,25,16,33,23.30
2008,07,25,16,34,23.30
2008,07,25,16,35,23.30
2008,07,25,16,36,23.30
2008,07,25,16,37,23.20
2008,07,25,16,38,23.10
2008,07,25,16,39,23.10
2008,07,25,16,40,23.10
2008,07,25,16,41,23.10
2008,07,25,16,42,23.20
2008,07,25,16,43,23.20
2008,07,25,16,44,23.30
2008,07,25,16,45,23.30
2008,07,25,16,46,23.30
2008,07,25,16,47,23.30
2008,07,25,16,48,23.20
2008,07,25,16,49,23.30
2008,07,25,16,50,23.30
2008,07,25,16,51,23.30
2008,07,25,16,52,23.30
2008,07,25,16,53,23.30
2008,07,25,16,54,23.30
2008,07,25,16,55,23.20
2008,07,25,16,56,23.10
2008,07,25,16,57,23.00
2008,07,25,16,58,22.90
2008,07,25,16,59,22.90
2008,07,25,17,00,22.90
2008,07,25,17,01,22.90
2008,07,25,17,02,22.90
2008,07,25,17,03,22.90
2008,07,25,17,04,22.90
2008,07,25,17,05,23.00
2008,07,25,17,06,23.10
2008,07,25,17,07,23.20
2008,07,25,17,08,23.20
2008,07,25,17,09,23.10
2008,07,25,17,10,23.10
2008,07,25,17,11,23.10
2008,07,25,17,12,23.10
2008,07,25,17,13,23.00
2008,07,25,17,14,22.90
2008,07,25,17,15,22.90
2008,07,25,17,16,22.90
2008,07,25,17,17,22.80
2008,07,25,17,18,22.70
2008,07,25,17,19,22.60